Year,Month,Day,Hour,Minute,Value (Times are PST for temperature in C)
2015,07,03,00,00,19.60
2015,07,03,00,01,19.60
2015,07,03,00,02,19.60
2015,07,03,00,03,19.60
2015,07,03,00,04,19.50
2015,07,03,00,05,19.50
2015,07,03,00,06,19.40
2015,07,03,00,07,19.40
2015,07,03,00,08,19.40
2015,07,03,00,09,19.30
2015,07,03,00,10,19.30
2015,07,03,00,11,19.30
2015,07,03,00,12,19.20
2015,07,03,00,13,19.20
2015,07,03,00,14,19.20
2015,07,03,00,15,19.10
2015,07,03,00,16,19.10
2015,07,03,00,17,19.10
2015,07,03,00,18,19.00
2015,07,03,00,19,18.90
2015,07,03,00,20,18.90
2015,07,03,00,21,18.90
2015,07,03,00,22,18.90
2015,07,03,00,23,18.90
2015,07,03,00,24,18.90
2015,07,03,00,25,18.90
2015,07,03,00,26,18.80
2015,07,03,00,27,18.80
2015,07,03,00,28,18.80
2015,07,03,00,29,18.80
2015,07,03,00,30,18.80
2015,07,03,00,31,18.80
2015,07,03,00,32,18.70
2015,07,03,00,33,18.70
2015,07,03,00,34,18.70
2015,07,03,00,35,18.70
2015,07,03,00,36,18.70
2015,07,03,00,37,18.70
2015,07,03,00,38,18.60
2015,07,03,00,39,18.60
2015,07,03,00,40,18.60
2015,07,03,00,41,18.60
2015,07,03,00,42,18.60
2015,07,03,00,43,18.60
2015,07,03,00,44,18.60
2015,07,03,00,45,18.50
2015,07,03,00,46,18.50
2015,07,03,00,47,18.50
2015,07,03,00,48,18.50
2015,07,03,00,49,18.40
2015,07,03,00,50,18.40
2015,07,03,00,51,18.40
2015,07,03,00,52,18.40
2015,07,03,00,53,18.40
2015,07,03,00,54,18.30
2015,07,03,00,55,18.30
2015,07,03,00,56,18.30
2015,07,03,00,57,18.30
2015,07,03,00,58,18.20
2015,07,03,00,59,18.20
2015,07,03,01,00,18.20
2015,07,03,01,01,18.20
2015,07,03,01,02,18.10
2015,07,03,01,03,18.10
2015,07,03,01,04,18.10
2015,07,03,01,05,18.10
2015,07,03,01,06,18.10
2015,07,03,01,07,18.00
2015,07,03,01,08,18.00
2015,07,03,01,09,18.00
2015,07,03,01,10,17.90
2015,07,03,01,11,17.90
2015,07,03,01,12,17.90
2015,07,03,01,13,17.90
2015,07,03,01,14,17.90
2015,07,03,01,15,17.80
2015,07,03,01,16,17.80
2015,07,03,01,17,17.80
2015,07,03,01,18,17.80
2015,07,03,01,19,17.80
2015,07,03,01,20,17.80
2015,07,03,01,21,17.70
2015,07,03,01,22,17.70
2015,07,03,01,23,17.70
2015,07,03,01,24,17.70
2015,07,03,01,25,17.80
2015,07,03,01,26,17.70
2015,07,03,01,27,17.70
2015,07,03,01,28,17.70
2015,07,03,01,29,17.70
2015,07,03,01,30,17.70
2015,07,03,01,31,17.70
2015,07,03,01,32,17.70
2015,07,03,01,33,17.80
2015,07,03,01,34,17.80
2015,07,03,01,35,17.80
2015,07,03,01,36,17.80
2015,07,03,01,37,17.80
2015,07,03,01,38,17.80
2015,07,03,01,39,17.80
2015,07,03,01,40,17.70
2015,07,03,01,41,17.70
2015,07,03,01,42,17.70
2015,07,03,01,43,17.60
2015,07,03,01,44,17.60
2015,07,03,01,45,17.50
2015,07,03,01,46,17.50
2015,07,03,01,47,17.40
2015,07,03,01,48,17.40
2015,07,03,01,49,17.40
2015,07,03,01,50,17.30
2015,07,03,01,51,17.30
2015,07,03,01,52,17.30
2015,07,03,01,53,17.30
2015,07,03,01,54,17.30
2015,07,03,01,55,17.30
2015,07,03,01,56,17.30
2015,07,03,01,57,17.30
2015,07,03,01,58,17.30
2015,07,03,01,59,17.30
2015,07,03,02,00,17.20
2015,07,03,02,01,17.20
2015,07,03,02,02,17.20
2015,07,03,02,03,17.20
2015,07,03,02,04,17.10
2015,07,03,02,05,17.10
2015,07,03,02,06,17.10
2015,07,03,02,07,17.10
2015,07,03,02,08,17.10
2015,07,03,02,09,17.00
2015,07,03,02,10,17.00
2015,07,03,02,11,17.00
2015,07,03,02,12,17.00
2015,07,03,02,13,16.90
2015,07,03,02,14,16.90
2015,07,03,02,15,16.90
2015,07,03,02,16,16.90
2015,07,03,02,17,16.90
2015,07,03,02,18,16.90
2015,07,03,02,19,16.90
2015,07,03,02,20,16.90
2015,07,03,02,21,16.90
2015,07,03,02,22,16.90
2015,07,03,02,23,16.90
2015,07,03,02,24,16.90
2015,07,03,02,25,16.80
2015,07,03,02,26,16.80
2015,07,03,02,27,16.80
2015,07,03,02,28,16.80
2015,07,03,02,29,16.80
2015,07,03,02,30,16.80
2015,07,03,02,31,16.80
2015,07,03,02,32,16.80
2015,07,03,02,33,16.80
2015,07,03,02,34,16.70
2015,07,03,02,35,16.70
2015,07,03,02,36,16.70
2015,07,03,02,37,16.80
2015,07,03,02,38,16.80
2015,07,03,02,39,16.80
2015,07,03,02,40,16.70
2015,07,03,02,41,16.70
2015,07,03,02,42,16.70
2015,07,03,02,43,16.70
2015,07,03,02,44,16.70
2015,07,03,02,45,16.70
2015,07,03,02,46,16.60
2015,07,03,02,47,16.60
2015,07,03,02,48,16.60
2015,07,03,02,49,16.60
2015,07,03,02,50,16.60
2015,07,03,02,51,16.60
2015,07,03,02,52,16.60
2015,07,03,02,53,16.60
2015,07,03,02,54,16.60
2015,07,03,02,55,16.60
2015,07,03,02,56,16.60
2015,07,03,02,57,16.50
2015,07,03,02,58,16.50
2015,07,03,02,59,16.50
2015,07,03,03,00,16.50
2015,07,03,03,01,16.50
2015,07,03,03,02,16.50
2015,07,03,03,03,16.40
2015,07,03,03,04,16.40
2015,07,03,03,05,16.40
2015,07,03,03,06,16.40
2015,07,03,03,07,16.40
2015,07,03,03,08,16.40
2015,07,03,03,09,16.40
2015,07,03,03,10,16.40
2015,07,03,03,11,16.40
2015,07,03,03,12,16.40
2015,07,03,03,13,16.40
2015,07,03,03,14,16.40
2015,07,03,03,15,16.40
2015,07,03,03,16,16.40
2015,07,03,03,17,16.40
2015,07,03,03,18,16.40
2015,07,03,03,19,16.40
2015,07,03,03,20,16.40
2015,07,03,03,21,16.40
2015,07,03,03,22,16.30
2015,07,03,03,23,16.30
2015,07,03,03,24,16.30
2015,07,03,03,25,16.40
2015,07,03,03,26,16.30
2015,07,03,03,27,16.30
2015,07,03,03,28,16.30
2015,07,03,03,29,16.30
2015,07,03,03,30,16.30
2015,07,03,03,31,16.30
2015,07,03,03,32,16.30
2015,07,03,03,33,16.30
2015,07,03,03,34,16.30
2015,07,03,03,35,16.30
2015,07,03,03,36,16.30
2015,07,03,03,37,16.30
2015,07,03,03,38,16.30
2015,07,03,03,39,16.30
2015,07,03,03,40,16.40
2015,07,03,03,41,16.40
2015,07,03,03,42,16.40
2015,07,03,03,43,16.40
2015,07,03,03,44,16.40
2015,07,03,03,45,16.40
2015,07,03,03,46,16.40
2015,07,03,03,47,16.40
2015,07,03,03,48,16.40
2015,07,03,03,49,16.40
2015,07,03,03,50,16.40
2015,07,03,03,51,16.40
2015,07,03,03,52,16.30
2015,07,03,03,53,16.30
2015,07,03,03,54,16.30
2015,07,03,03,55,16.30
2015,07,03,03,56,16.20
2015,07,03,03,57,16.20
2015,07,03,03,58,16.20
2015,07,03,03,59,16.20
2015,07,03,04,00,16.20
2015,07,03,04,01,16.20
2015,07,03,04,02,16.20
2015,07,03,04,03,16.20
2015,07,03,04,04,16.10
2015,07,03,04,05,16.10
2015,07,03,04,06,16.10
2015,07,03,04,07,16.10
2015,07,03,04,08,16.10
2015,07,03,04,09,16.00
2015,07,03,04,10,16.00
2015,07,03,04,11,16.00
2015,07,03,04,12,16.00
2015,07,03,04,13,15.90
2015,07,03,04,14,15.90
2015,07,03,04,15,15.90
2015,07,03,04,16,15.90
2015,07,03,04,17,15.90
2015,07,03,04,18,15.90
2015,07,03,04,19,15.90
2015,07,03,04,20,15.90
2015,07,03,04,21,15.90
2015,07,03,04,22,15.90
2015,07,03,04,23,15.90
2015,07,03,04,24,15.90
2015,07,03,04,25,15.90
2015,07,03,04,26,15.90
2015,07,03,04,27,15.90
2015,07,03,04,28,15.90
2015,07,03,04,29,15.90
2015,07,03,04,30,15.90
2015,07,03,04,31,16.00
2015,07,03,04,32,16.00
2015,07,03,04,33,16.00
2015,07,03,04,34,16.00
2015,07,03,04,35,16.00
2015,07,03,04,36,16.00
2015,07,03,04,37,16.00
2015,07,03,04,38,16.00
2015,07,03,04,39,16.00
2015,07,03,04,40,16.00
2015,07,03,04,41,16.10
2015,07,03,04,42,16.10
2015,07,03,04,43,16.10
2015,07,03,04,44,16.10
2015,07,03,04,45,16.10
2015,07,03,04,46,16.10
2015,07,03,04,47,16.10
2015,07,03,04,48,16.10
2015,07,03,04,49,16.10
2015,07,03,04,50,16.10
2015,07,03,04,51,16.10
2015,07,03,04,52,16.10
2015,07,03,04,53,16.10
2015,07,03,04,54,16.10
2015,07,03,04,55,16.10
2015,07,03,04,56,16.10
2015,07,03,04,57,16.10
2015,07,03,04,58,16.10
2015,07,03,04,59,16.10
2015,07,03,05,00,16.10
2015,07,03,05,01,16.10
2015,07,03,05,02,16.00
2015,07,03,05,03,16.00
2015,07,03,05,04,16.00
2015,07,03,05,05,16.00
2015,07,03,05,06,16.00
2015,07,03,05,07,15.90
2015,07,03,05,08,15.90
2015,07,03,05,09,15.90
2015,07,03,05,10,15.90
2015,07,03,05,11,15.90
2015,07,03,05,12,15.90
2015,07,03,05,13,15.90
2015,07,03,05,14,15.90
2015,07,03,05,15,15.90
2015,07,03,05,16,15.80
2015,07,03,05,17,15.90
2015,07,03,05,18,15.90
2015,07,03,05,19,15.90
2015,07,03,05,20,15.90
2015,07,03,05,21,15.90
2015,07,03,05,22,15.80
2015,07,03,05,23,15.80
2015,07,03,05,24,15.80
2015,07,03,05,25,15.80
2015,07,03,05,26,15.80
2015,07,03,05,27,15.90
2015,07,03,05,28,16.00
2015,07,03,05,29,16.00
2015,07,03,05,30,16.10
2015,07,03,05,31,16.10
2015,07,03,05,32,16.10
2015,07,03,05,33,16.20
2015,07,03,05,34,16.20
2015,07,03,05,35,16.20
2015,07,03,05,36,16.10
2015,07,03,05,37,16.20
2015,07,03,05,38,16.10
2015,07,03,05,39,16.10
2015,07,03,05,40,16.10
2015,07,03,05,41,16.10
2015,07,03,05,42,16.10
2015,07,03,05,43,16.10
2015,07,03,05,44,16.10
2015,07,03,05,45,16.10
2015,07,03,05,46,16.10
2015,07,03,05,47,16.00
2015,07,03,05,48,16.10
2015,07,03,05,49,16.10
2015,07,03,05,50,16.10
2015,07,03,05,51,16.10
2015,07,03,05,52,16.10
2015,07,03,05,53,16.10
2015,07,03,05,54,16.10
2015,07,03,05,55,16.10
2015,07,03,05,56,16.10
2015,07,03,05,57,16.10
2015,07,03,05,58,16.10
2015,07,03,05,59,16.10
2015,07,03,06,00,16.10
2015,07,03,06,01,16.20
2015,07,03,06,02,16.20
2015,07,03,06,03,16.20
2015,07,03,06,04,16.20
2015,07,03,06,05,16.20
2015,07,03,06,06,16.30
2015,07,03,06,07,16.30
2015,07,03,06,08,16.30
2015,07,03,06,09,16.30
2015,07,03,06,10,16.30
2015,07,03,06,11,16.40
2015,07,03,06,12,16.40
2015,07,03,06,13,16.40
2015,07,03,06,14,16.40
2015,07,03,06,15,16.40
2015,07,03,06,16,16.40
2015,07,03,06,17,16.40
2015,07,03,06,18,16.40
2015,07,03,06,19,16.50
2015,07,03,06,20,16.50
2015,07,03,06,21,16.60
2015,07,03,06,22,16.60
2015,07,03,06,23,16.70
2015,07,03,06,24,16.70
2015,07,03,06,25,16.80
2015,07,03,06,26,16.90
2015,07,03,06,27,17.00
2015,07,03,06,28,17.10
2015,07,03,06,29,17.20
2015,07,03,06,30,17.30
2015,07,03,06,31,17.30
2015,07,03,06,32,17.40
2015,07,03,06,33,17.50
2015,07,03,06,34,17.50
2015,07,03,06,35,17.60
2015,07,03,06,36,17.70
2015,07,03,06,37,17.80
2015,07,03,06,38,17.80
2015,07,03,06,39,17.90
2015,07,03,06,40,18.00
2015,07,03,06,41,18.00
2015,07,03,06,42,18.10
2015,07,03,06,43,18.10
2015,07,03,06,44,18.20
2015,07,03,06,45,18.40
2015,07,03,06,46,18.50
2015,07,03,06,47,18.60
2015,07,03,06,48,18.70
2015,07,03,06,49,18.70
2015,07,03,06,50,18.70
2015,07,03,06,51,18.70
2015,07,03,06,52,18.80
2015,07,03,06,53,18.80
2015,07,03,06,54,18.90
2015,07,03,06,55,19.00
2015,07,03,06,56,19.10
2015,07,03,06,57,19.10
2015,07,03,06,58,19.20
2015,07,03,06,59,19.30
2015,07,03,07,00,19.40
2015,07,03,07,01,19.40
2015,07,03,07,02,19.50
2015,07,03,07,03,19.60
2015,07,03,07,04,19.70
2015,07,03,07,05,19.80
2015,07,03,07,06,19.90
2015,07,03,07,07,20.00
2015,07,03,07,08,20.10
2015,07,03,07,09,20.20
2015,07,03,07,10,20.20
2015,07,03,07,11,20.30
2015,07,03,07,12,20.40
2015,07,03,07,13,20.50
2015,07,03,07,14,20.60
2015,07,03,07,15,20.60
2015,07,03,07,16,20.70
2015,07,03,07,17,20.70
2015,07,03,07,18,20.70
2015,07,03,07,19,20.80
2015,07,03,07,20,20.80
2015,07,03,07,21,20.80
2015,07,03,07,22,21.00
2015,07,03,07,23,21.10
2015,07,03,07,24,21.10
2015,07,03,07,25,21.20
2015,07,03,07,26,21.20
2015,07,03,07,27,21.20
2015,07,03,07,28,21.10
2015,07,03,07,29,21.00
2015,07,03,07,30,20.90
2015,07,03,07,31,20.80
2015,07,03,07,32,20.70
2015,07,03,07,33,20.70
2015,07,03,07,34,20.70
2015,07,03,07,35,20.70
2015,07,03,07,36,20.70
2015,07,03,07,37,20.60
2015,07,03,07,38,20.60
2015,07,03,07,39,20.50
2015,07,03,07,40,20.50
2015,07,03,07,41,20.50
2015,07,03,07,42,20.60
2015,07,03,07,43,20.70
2015,07,03,07,44,20.60
2015,07,03,07,45,20.60
2015,07,03,07,46,20.70
2015,07,03,07,47,20.70
2015,07,03,07,48,20.70
2015,07,03,07,49,20.70
2015,07,03,07,50,20.80
2015,07,03,07,51,21.00
2015,07,03,07,52,21.20
2015,07,03,07,53,21.30
2015,07,03,07,54,21.60
2015,07,03,07,55,21.80
2015,07,03,07,56,21.90
2015,07,03,07,57,22.10
2015,07,03,07,58,22.30
2015,07,03,07,59,22.50
2015,07,03,08,00,22.60
2015,07,03,08,01,22.70
2015,07,03,08,02,22.90
2015,07,03,08,03,23.00
2015,07,03,08,04,23.10
2015,07,03,08,05,23.20
2015,07,03,08,06,23.30
2015,07,03,08,07,23.30
2015,07,03,08,08,23.00
2015,07,03,08,09,22.80
2015,07,03,08,10,22.60
2015,07,03,08,11,22.40
2015,07,03,08,12,22.10
2015,07,03,08,13,22.00
2015,07,03,08,14,21.90
2015,07,03,08,15,21.80
2015,07,03,08,16,21.80
2015,07,03,08,17,21.80
2015,07,03,08,18,21.70
2015,07,03,08,19,21.70
2015,07,03,08,20,21.80
2015,07,03,08,21,21.80
2015,07,03,08,22,21.80
2015,07,03,08,23,21.90
2015,07,03,08,24,22.00
2015,07,03,08,25,22.10
2015,07,03,08,26,22.20
2015,07,03,08,27,22.30
2015,07,03,08,28,22.40
2015,07,03,08,29,22.50
2015,07,03,08,30,22.60
2015,07,03,08,31,22.70
2015,07,03,08,32,22.80
2015,07,03,08,33,22.90
2015,07,03,08,34,23.00
2015,07,03,08,35,23.10
2015,07,03,08,36,23.20
2015,07,03,08,37,23.20
2015,07,03,08,38,23.10
2015,07,03,08,39,22.90
2015,07,03,08,40,22.80
2015,07,03,08,41,22.70
2015,07,03,08,42,22.70
2015,07,03,08,43,22.60
2015,07,03,08,44,22.60
2015,07,03,08,45,22.50
2015,07,03,08,46,22.50
2015,07,03,08,47,22.60
2015,07,03,08,48,22.60
2015,07,03,08,49,22.70
2015,07,03,08,50,22.70
2015,07,03,08,51,22.70
2015,07,03,08,52,22.70
2015,07,03,08,53,22.80
2015,07,03,08,54,22.80
2015,07,03,08,55,22.90
2015,07,03,08,56,22.90
2015,07,03,08,57,23.00
2015,07,03,08,58,23.00
2015,07,03,08,59,23.10
2015,07,03,09,00,23.00
2015,07,03,09,01,22.90
2015,07,03,09,02,22.90
2015,07,03,09,03,22.80
2015,07,03,09,04,22.70
2015,07,03,09,05,22.60
2015,07,03,09,06,22.60
2015,07,03,09,07,22.60
2015,07,03,09,08,22.70
2015,07,03,09,09,22.80
2015,07,03,09,10,22.80
2015,07,03,09,11,22.90
2015,07,03,09,12,22.80
2015,07,03,09,13,22.80
2015,07,03,09,14,22.80
2015,07,03,09,15,22.80
2015,07,03,09,16,22.70
2015,07,03,09,17,22.60
2015,07,03,09,18,22.50
2015,07,03,09,19,22.40
2015,07,03,09,20,22.40
2015,07,03,09,21,22.50
2015,07,03,09,22,22.60
2015,07,03,09,23,22.70
2015,07,03,09,24,22.80
2015,07,03,09,25,22.90
2015,07,03,09,26,23.00
2015,07,03,09,27,23.00
2015,07,03,09,28,23.10
2015,07,03,09,29,23.20
2015,07,03,09,30,23.30
2015,07,03,09,31,23.40
2015,07,03,09,32,23.50
2015,07,03,09,33,23.50
2015,07,03,09,34,23.50
2015,07,03,09,35,23.60
2015,07,03,09,36,23.70
2015,07,03,09,37,23.80
2015,07,03,09,38,23.90
2015,07,03,09,39,24.00
2015,07,03,09,40,24.10
2015,07,03,09,41,24.10
2015,07,03,09,42,24.20
2015,07,03,09,43,24.20
2015,07,03,09,44,24.30
2015,07,03,09,45,24.40
2015,07,03,09,46,24.50
2015,07,03,09,47,24.50
2015,07,03,09,48,24.50
2015,07,03,09,49,24.60
2015,07,03,09,50,24.60
2015,07,03,09,51,24.60
2015,07,03,09,52,24.60
2015,07,03,09,53,24.70
2015,07,03,09,54,24.70
2015,07,03,09,55,24.60
2015,07,03,09,56,24.40
2015,07,03,09,57,24.30
2015,07,03,09,58,24.20
2015,07,03,09,59,24.10
2015,07,03,10,00,24.00
2015,07,03,10,01,23.90
2015,07,03,10,02,24.00
2015,07,03,10,03,24.10
2015,07,03,10,04,24.20
2015,07,03,10,05,24.40
2015,07,03,10,06,24.50
2015,07,03,10,07,24.60
2015,07,03,10,08,24.70
2015,07,03,10,09,24.70
2015,07,03,10,10,24.70
2015,07,03,10,11,24.60
2015,07,03,10,12,24.60
2015,07,03,10,13,24.60
2015,07,03,10,14,24.60
2015,07,03,10,15,24.70
2015,07,03,10,16,24.70
2015,07,03,10,17,24.70
2015,07,03,10,18,24.70
2015,07,03,10,19,24.70
2015,07,03,10,20,24.70
2015,07,03,10,21,24.70
2015,07,03,10,22,24.70
2015,07,03,10,23,24.70
2015,07,03,10,24,24.70
2015,07,03,10,25,24.70
2015,07,03,10,26,24.70
2015,07,03,10,27,24.70
2015,07,03,10,28,24.80
2015,07,03,10,29,24.90
2015,07,03,10,30,24.90
2015,07,03,10,31,24.90
2015,07,03,10,32,25.00
2015,07,03,10,33,25.00
2015,07,03,10,34,25.10
2015,07,03,10,35,25.20
2015,07,03,10,36,25.20
2015,07,03,10,37,25.40
2015,07,03,10,38,25.40
2015,07,03,10,39,25.50
2015,07,03,10,40,25.50
2015,07,03,10,41,25.60
2015,07,03,10,42,25.60
2015,07,03,10,43,25.60
2015,07,03,10,44,25.70
2015,07,03,10,45,25.70
2015,07,03,10,46,25.60
2015,07,03,10,47,25.50
2015,07,03,10,48,25.50
2015,07,03,10,49,25.60
2015,07,03,10,50,25.60
2015,07,03,10,51,25.60
2015,07,03,10,52,25.60
2015,07,03,10,53,25.60
2015,07,03,10,54,25.50
2015,07,03,10,55,25.40
2015,07,03,10,56,25.40
2015,07,03,10,57,25.30
2015,07,03,10,58,25.30
2015,07,03,10,59,25.30
2015,07,03,11,00,25.30
2015,07,03,11,01,25.30
2015,07,03,11,02,25.20
2015,07,03,11,03,25.10
2015,07,03,11,04,25.10
2015,07,03,11,05,25.10
2015,07,03,11,06,25.10
2015,07,03,11,07,25.10
2015,07,03,11,08,25.10
2015,07,03,11,09,25.10
2015,07,03,11,10,25.20
2015,07,03,11,11,25.40
2015,07,03,11,12,25.50
2015,07,03,11,13,25.60
2015,07,03,11,14,25.80
2015,07,03,11,15,25.80
2015,07,03,11,16,25.90
2015,07,03,11,17,25.80
2015,07,03,11,18,25.80
2015,07,03,11,19,25.90
2015,07,03,11,20,25.90
2015,07,03,11,21,25.90
2015,07,03,11,22,25.90
2015,07,03,11,23,25.90
2015,07,03,11,24,25.90
2015,07,03,11,25,25.90
2015,07,03,11,26,25.90
2015,07,03,11,27,25.90
2015,07,03,11,28,25.90
2015,07,03,11,29,25.90
2015,07,03,11,30,25.90
2015,07,03,11,31,25.90
2015,07,03,11,32,25.70
2015,07,03,11,33,25.60
2015,07,03,11,34,25.60
2015,07,03,11,35,25.70
2015,07,03,11,36,25.80
2015,07,03,11,37,25.90
2015,07,03,11,38,26.10
2015,07,03,11,39,26.20
2015,07,03,11,40,26.20
2015,07,03,11,41,26.30
2015,07,03,11,42,26.30
2015,07,03,11,43,26.40
2015,07,03,11,44,26.50
2015,07,03,11,45,26.40
2015,07,03,11,46,26.40
2015,07,03,11,47,26.40
2015,07,03,11,48,26.30
2015,07,03,11,49,26.30
2015,07,03,11,50,26.20
2015,07,03,11,51,26.10
2015,07,03,11,52,26.20
2015,07,03,11,53,26.10
2015,07,03,11,54,26.10
2015,07,03,11,55,26.10
2015,07,03,11,56,26.10
2015,07,03,11,57,26.20
2015,07,03,11,58,26.20
2015,07,03,11,59,26.30
2015,07,03,12,00,26.50
2015,07,03,12,01,26.60
2015,07,03,12,02,26.50
2015,07,03,12,03,26.30
2015,07,03,12,04,26.10
2015,07,03,12,05,26.10
2015,07,03,12,06,26.00
2015,07,03,12,07,26.00
2015,07,03,12,08,26.10
2015,07,03,12,09,26.10
2015,07,03,12,10,26.20
2015,07,03,12,11,26.30
2015,07,03,12,12,26.40
2015,07,03,12,13,26.40
2015,07,03,12,14,26.50
2015,07,03,12,15,26.40
2015,07,03,12,16,26.40
2015,07,03,12,17,26.30
2015,07,03,12,18,26.30
2015,07,03,12,19,26.40
2015,07,03,12,20,26.50
2015,07,03,12,21,26.60
2015,07,03,12,22,26.60
2015,07,03,12,23,26.60
2015,07,03,12,24,26.70
2015,07,03,12,25,26.80
2015,07,03,12,26,26.90
2015,07,03,12,27,27.00
2015,07,03,12,28,27.00
2015,07,03,12,29,27.10
2015,07,03,12,30,27.20
2015,07,03,12,31,27.40
2015,07,03,12,32,27.50
2015,07,03,12,33,27.70
2015,07,03,12,34,27.70
2015,07,03,12,35,27.80
2015,07,03,12,36,28.00
2015,07,03,12,37,28.10
2015,07,03,12,38,28.20
2015,07,03,12,39,28.30
2015,07,03,12,40,28.40
2015,07,03,12,41,28.50
2015,07,03,12,42,28.60
2015,07,03,12,43,28.70
2015,07,03,12,44,28.80
2015,07,03,12,45,28.80
2015,07,03,12,46,28.90
2015,07,03,12,47,29.00
2015,07,03,12,48,29.10
2015,07,03,12,49,29.30
2015,07,03,12,50,29.40
2015,07,03,12,51,29.30
2015,07,03,12,52,29.10
2015,07,03,12,53,28.90
2015,07,03,12,54,28.80
2015,07,03,12,55,28.80
2015,07,03,12,56,28.90
2015,07,03,12,57,28.80
2015,07,03,12,58,28.80
2015,07,03,12,59,28.80
2015,07,03,13,00,28.80
2015,07,03,13,01,28.70
2015,07,03,13,02,28.70
2015,07,03,13,03,28.80
2015,07,03,13,04,28.80
2015,07,03,13,05,28.70
2015,07,03,13,06,28.60
2015,07,03,13,07,28.60
2015,07,03,13,08,28.70
2015,07,03,13,09,28.70
2015,07,03,13,10,28.70
2015,07,03,13,11,28.60
2015,07,03,13,12,28.40
2015,07,03,13,13,28.30
2015,07,03,13,14,28.30
2015,07,03,13,15,28.10
2015,07,03,13,16,28.00
2015,07,03,13,17,27.80
2015,07,03,13,18,27.60
2015,07,03,13,19,27.20
2015,07,03,13,20,26.90
2015,07,03,13,21,26.70
2015,07,03,13,22,26.60
2015,07,03,13,23,26.60
2015,07,03,13,24,26.60
2015,07,03,13,25,26.60
2015,07,03,13,26,26.50
2015,07,03,13,27,26.50
2015,07,03,13,28,26.50
2015,07,03,13,29,26.60
2015,07,03,13,30,26.60
2015,07,03,13,31,26.50
2015,07,03,13,32,26.40
2015,07,03,13,33,26.30
2015,07,03,13,34,26.30
2015,07,03,13,35,26.30
2015,07,03,13,36,26.40
2015,07,03,13,37,26.50
2015,07,03,13,38,26.50
2015,07,03,13,39,26.30
2015,07,03,13,40,26.30
2015,07,03,13,41,26.30
2015,07,03,13,42,26.30
2015,07,03,13,43,26.30
2015,07,03,13,44,26.40
2015,07,03,13,45,26.50
2015,07,03,13,46,26.60
2015,07,03,13,47,26.60
2015,07,03,13,48,26.60
2015,07,03,13,49,26.60
2015,07,03,13,50,26.60
2015,07,03,13,51,26.60
2015,07,03,13,52,26.60
2015,07,03,13,53,26.60
2015,07,03,13,54,26.60
2015,07,03,13,55,26.60
2015,07,03,13,56,26.50
2015,07,03,13,57,26.40
2015,07,03,13,58,26.30
2015,07,03,13,59,26.30
2015,07,03,14,00,26.30
2015,07,03,14,01,26.30
2015,07,03,14,02,26.30
2015,07,03,14,03,26.40
2015,07,03,14,04,26.50
2015,07,03,14,05,26.40
2015,07,03,14,06,26.40
2015,07,03,14,07,26.30
2015,07,03,14,08,26.20
2015,07,03,14,09,26.20
2015,07,03,14,10,26.10
2015,07,03,14,11,26.10
2015,07,03,14,12,26.10
2015,07,03,14,13,26.20
2015,07,03,14,14,26.20
2015,07,03,14,15,26.30
2015,07,03,14,16,26.30
2015,07,03,14,17,26.20
2015,07,03,14,18,26.20
2015,07,03,14,19,26.20
2015,07,03,14,20,26.20
2015,07,03,14,21,26.20
2015,07,03,14,22,26.20
2015,07,03,14,23,26.20
2015,07,03,14,24,26.30
2015,07,03,14,25,26.30
2015,07,03,14,26,26.20
2015,07,03,14,27,26.20
2015,07,03,14,28,26.10
2015,07,03,14,29,26.20
2015,07,03,14,30,26.40
2015,07,03,14,31,26.60
2015,07,03,14,32,26.80
2015,07,03,14,33,26.80
2015,07,03,14,34,26.70
2015,07,03,14,35,26.60
2015,07,03,14,36,26.40
2015,07,03,14,37,26.30
2015,07,03,14,38,26.20
2015,07,03,14,39,26.20
2015,07,03,14,40,26.00
2015,07,03,14,41,26.00
2015,07,03,14,42,25.90
2015,07,03,14,43,25.90
2015,07,03,14,44,25.90
2015,07,03,14,45,25.80
2015,07,03,14,46,25.90
2015,07,03,14,47,25.90
2015,07,03,14,48,25.90
2015,07,03,14,49,25.90
2015,07,03,14,50,25.90
2015,07,03,14,51,25.80
2015,07,03,14,52,25.70
2015,07,03,14,53,25.60
2015,07,03,14,54,25.50
2015,07,03,14,55,25.50
2015,07,03,14,56,25.60
2015,07,03,14,57,25.60
2015,07,03,14,58,25.70
2015,07,03,14,59,25.80
2015,07,03,15,00,26.00
2015,07,03,15,01,26.20
2015,07,03,15,02,26.40
2015,07,03,15,03,26.60
2015,07,03,15,04,26.70
2015,07,03,15,05,26.70
2015,07,03,15,06,26.70
2015,07,03,15,07,26.70
2015,07,03,15,08,26.60
2015,07,03,15,09,26.50
2015,07,03,15,10,26.30
2015,07,03,15,11,26.20
2015,07,03,15,12,26.20
2015,07,03,15,13,26.20
2015,07,03,15,14,26.00
2015,07,03,15,15,25.90
2015,07,03,15,16,25.90
2015,07,03,15,17,25.80
2015,07,03,15,18,25.90
2015,07,03,15,19,25.90
2015,07,03,15,20,26.00
2015,07,03,15,21,26.10
2015,07,03,15,22,26.20
2015,07,03,15,23,26.40
2015,07,03,15,24,26.50
2015,07,03,15,25,26.50
2015,07,03,15,26,26.40
2015,07,03,15,27,26.40
2015,07,03,15,28,26.30
2015,07,03,15,29,26.30
2015,07,03,15,30,26.40
2015,07,03,15,31,26.40
2015,07,03,15,32,26.40
2015,07,03,15,33,26.40
2015,07,03,15,34,26.40
2015,07,03,15,35,26.40
2015,07,03,15,36,26.40
2015,07,03,15,37,26.40
2015,07,03,15,38,26.50
2015,07,03,15,39,26.50
2015,07,03,15,40,26.70
2015,07,03,15,41,26.80
2015,07,03,15,42,26.80
2015,07,03,15,43,26.80
2015,07,03,15,44,26.70
2015,07,03,15,45,26.70
2015,07,03,15,46,26.60
2015,07,03,15,47,26.70
2015,07,03,15,48,26.70
2015,07,03,15,49,26.70
2015,07,03,15,50,26.80
2015,07,03,15,51,26.80
2015,07,03,15,52,26.80
2015,07,03,15,53,26.80
2015,07,03,15,54,26.70
2015,07,03,15,55,26.60
2015,07,03,15,56,26.50
2015,07,03,15,57,26.40
2015,07,03,15,58,26.40
2015,07,03,15,59,26.40
2015,07,03,16,00,26.50
2015,07,03,16,01,26.70
2015,07,03,16,02,26.80
2015,07,03,16,03,26.90
2015,07,03,16,04,27.10
2015,07,03,16,05,27.20
2015,07,03,16,06,27.40
2015,07,03,16,07,27.50
2015,07,03,16,08,27.70
2015,07,03,16,09,27.70
2015,07,03,16,10,27.60
2015,07,03,16,11,27.40
2015,07,03,16,12,27.20
2015,07,03,16,13,27.10
2015,07,03,16,14,27.00
2015,07,03,16,15,26.90
2015,07,03,16,16,26.90
2015,07,03,16,17,26.90
2015,07,03,16,18,26.90
2015,07,03,16,19,26.90
2015,07,03,16,20,26.90
2015,07,03,16,21,26.90
2015,07,03,16,22,26.80
2015,07,03,16,23,26.80
2015,07,03,16,24,26.70
2015,07,03,16,25,26.70
2015,07,03,16,26,26.70
2015,07,03,16,27,26.70
2015,07,03,16,28,26.70
2015,07,03,16,29,26.70
2015,07,03,16,30,26.70
2015,07,03,16,31,26.70
2015,07,03,16,32,26.70
2015,07,03,16,33,26.70
2015,07,03,16,34,26.80
2015,07,03,16,35,26.80
2015,07,03,16,36,26.90
2015,07,03,16,37,26.90
2015,07,03,16,38,27.00
2015,07,03,16,39,27.10
2015,07,03,16,40,27.20
2015,07,03,16,41,27.30
2015,07,03,16,42,27.30
2015,07,03,16,43,27.20
2015,07,03,16,44,27.10
2015,07,03,16,45,26.90
2015,07,03,16,46,26.80
2015,07,03,16,47,26.80
2015,07,03,16,48,26.80
2015,07,03,16,49,26.80
2015,07,03,16,50,26.90
2015,07,03,16,51,26.90
2015,07,03,16,52,26.90
2015,07,03,16,53,27.00
2015,07,03,16,54,26.90
2015,07,03,16,55,26.90
2015,07,03,16,56,26.90
2015,07,03,16,57,26.90
2015,07,03,16,58,27.00
2015,07,03,16,59,27.00
2015,07,03,17,00,27.00
2015,07,03,17,01,27.00
2015,07,03,17,02,27.00
2015,07,03,17,03,26.90
2015,07,03,17,04,26.90
2015,07,03,17,05,26.80
2015,07,03,17,06,26.80
2015,07,03,17,07,26.80
2015,07,03,17,08,26.90
2015,07,03,17,09,26.80
2015,07,03,17,10,26.90
2015,07,03,17,11,26.90
2015,07,03,17,12,26.90
2015,07,03,17,13,27.00
2015,07,03,17,14,27.00
2015,07,03,17,15,27.00
2015,07,03,17,16,27.00
2015,07,03,17,17,27.10
2015,07,03,17,18,27.20
2015,07,03,17,19,27.20